Flag for Germany Weather past 2 weeks in Kempen, North Rhine-Westphalia, Germany

Now
43 °F

Scattered showers. Passing clouds.


Feels Like: 35 °F
Forecast: 37 / 48 °F
Wind: 15 mph from West

Location: Monchengladbach Airport

Current Time: Mar 4, 2015 at 6:07:24 PM

Latest Report: Mar 4, 2015 at 5:20 PM


Visibility: N/A

Pressure: 30.30 "Hg

Humidity: 71%

Dew point: 34 °F

Location of KempenLocation

Historic Weather in Kempen — Graph

°F

Kempen temperature yesterday

Maximum temperature yesterday: 50 °F (at 1:50 PM)
Minimum temperature yesterday: 37 °F (at 4:50 PM)
Average temperature yesterday: 43 °F

Past Weeks' High & Low Weather Summary

 TemperatureHumidityPressure
High52 °F (Mar 1, 10:20 AM)100% (Feb 17, 4:20 PM)30.77 "Hg (Feb 17, 4:20 PM)
Low30 °F (Feb 28, 7:20 AM)50% (Feb 28, 4:50 PM)29.45 "Hg (Feb 21, 8:20 AM)
Average42 °F79%29.97 "Hg
* Reported Feb 17 4:20 PM — Mar 4 4:50 PM, Kempen, Weather by CustomWeather, © 2015

Note: Actual official high and low records may vary slightly from our data, if they occured in-between our weather recording intervals... More about our weather records

Advertising

Kempen weather history for previous 24 hours

 ConditionsComfort  
Time TempWeatherWind HumidityBarometerVisibility
4:50 PM
Wed, Mar 4
43 °FScattered showers. Passing clouds.10 mph76%30.30 "HgN/A
4:20 PM43 °FScattered showers. Passing clouds.13 mph76%30.30 "HgN/A
3:50 PM43 °FScattered showers. Passing clouds.13 mph76%30.30 "HgN/A
3:20 PM45 °FScattered showers. Passing clouds.13 mph66%30.27 "HgN/A
2:50 PM46 °FScattered showers. Passing clouds.12 mph71%30.27 "HgN/A
2:20 PM45 °FScattered showers. Passing clouds.13 mph71%30.27 "HgN/A
1:50 PM45 °FPassing clouds.18 mph66%30.27 "HgN/A
1:20 PM46 °FPassing clouds.21 mph62%30.27 "HgN/A
12:50 PM45 °FPartly cloudy.14 mph66%30.27 "HgN/A
12:20 PM45 °FPassing clouds.10 mph71%30.27 "HgN/A
11:50 AM43 °FPassing clouds.12 mph76%30.24 "HgN/A
11:20 AM43 °FPassing clouds.8 mph76%30.24 "HgN/A
10:50 AM43 °FPassing clouds.10 mph71%30.24 "HgN/A
10:20 AM41 °FPassing clouds.12 mph76%30.24 "HgN/A
9:50 AM41 °FPassing clouds.9 mph76%30.21 "HgN/A
9:20 AM39 °FPassing clouds.8 mph81%30.21 "HgN/A
8:50 AM37 °FSunny.10 mph81%30.21 "Hg10 mi
8:20 AM37 °FSunny.7 mph81%30.21 "Hg10 mi
7:50 AM36 °FPassing clouds.7 mph87%30.18 "HgN/A
7:50 PM
Tue, Mar 3
41 °FPassing clouds.10 mph87%30.01 "HgN/A
7:20 PM41 °FPassing clouds.8 mph87%30.01 "HgN/A
6:50 PM41 °FPassing clouds.7 mph87%30.01 "HgN/A
6:20 PM41 °FScattered showers. Passing clouds.7 mph87%29.98 "HgN/A
Weather by CustomWeather, © 2015

See weather overviewHow to use our weather pages